FW4804 Karpenisi GR current weather conditions

sailwx.info

Wind from 091 at 3 knots gusting 7

Air temperature -1.1° C
Dewpoint -7.5° C

Last reported at 2020-Jan-21 06:05 UTC.
Time now 2020-Jan-21 06:32 UTC

Location: N 38°54' E 021°47'.
View on Google Maps.

See reports from other nearby stations

  
Tides and Currents Weather Stations Pressure Air Temp Water Temp Dewpoint Dewpoint Depression Visibility Wind Speed Wind Dir Waves Ship Positions
date/time (UTC)wind fromknots sea level pressurealtimeterstation pressurevisibilityair tempwater tempwave heightnotes
2020-Jan-21 06:05 091 3 gusting 7 -1.1
2020-Jan-21 06:00 085 3 gusting 7 -1.1
2020-Jan-21 05:55 094 2 gusting 5 -1.1
2020-Jan-21 05:50 085 2 gusting 6 -1.1
2020-Jan-21 05:45 078 3 gusting 6 -1.1
2020-Jan-21 05:40 090 3 gusting 6 -1.1
2020-Jan-21 05:35 103 2 gusting 6 -1.1
2020-Jan-21 05:30 074 3 gusting 6 -1.1
2020-Jan-21 05:25 076 3 gusting 6 -1.1
2020-Jan-21 05:20 074 3 gusting 9 -1.1
2020-Jan-21 05:15 044 3 gusting 9 -1.1
2020-Jan-21 05:10 043 3 gusting 6 -1.1
2020-Jan-21 05:05 083 3 gusting 7 -1.1
2020-Jan-21 05:00 084 3 gusting 8 -1.1
2020-Jan-21 04:55 090 3 gusting 8 -1.1
2020-Jan-21 04:50 109 3 gusting 8 -1.1
2020-Jan-21 04:45 126 4 gusting 7 -1.1
2020-Jan-21 04:40 133 5 gusting 12 -1.1
2020-Jan-21 04:35 120 5 gusting 12 -1.1
2020-Jan-21 04:30 105 4 gusting 8 -1.1
2020-Jan-21 04:25 096 4 gusting 7 -1.1
2020-Jan-21 04:20 097 4 gusting 8 -0.6
2020-Jan-21 04:15 102 5 gusting 8 -0.6
2020-Jan-21 04:10 101 4 gusting 7 -0.6
2020-Jan-21 04:05 088 4 gusting 8 -0.6
2020-Jan-21 04:00 097 5 gusting 9 -0.6
2020-Jan-21 03:55 110 4 gusting 9 -0.6
2020-Jan-21 03:50 103 4 gusting 8 -0.6
2020-Jan-21 03:45 104 5 gusting 12 -0.6
2020-Jan-21 03:40 085 5 gusting 12 -0.6
2020-Jan-21 03:35 084 5 gusting 10 -0.6
2020-Jan-21 03:30 124 6 gusting 15 -0.6
2020-Jan-21 03:25 107 5 gusting 15 -0.6
2020-Jan-21 03:20 102 4 gusting 7 -0.6
2020-Jan-21 03:15 123 4 gusting 11 -0.6
2020-Jan-21 03:10 098 4 gusting 11 -0.6
2020-Jan-21 03:05 102 5 gusting 13 -0.6
2020-Jan-21 03:00 130 5 gusting 13 -0.6
2020-Jan-21 02:55 114 4 gusting 10 -0.6
2020-Jan-21 02:50 107 5 gusting 13 -0.6
2020-Jan-21 02:45 113 5 gusting 13 -0.6
2020-Jan-21 02:40 126 5 gusting 12 -0.6
2020-Jan-21 02:35 134 5 gusting 12 -0.6
2020-Jan-21 02:30 141 5 gusting 12 -0.6
2020-Jan-21 02:25 141 5 gusting 10 -0.6
2020-Jan-21 02:20 135 4 gusting 10 -0.6
2020-Jan-21 02:15 135 3 gusting 10 -0.6
2020-Jan-21 02:10 157 3 gusting 7 -0.6
2020-Jan-21 02:05 143 3 gusting 6 -0.6
2020-Jan-21 02:00 090 2 gusting 6 -0.6
2020-Jan-21 01:55 070 3 gusting 10 -0.0
2020-Jan-21 01:50 320 2 gusting 10 -0.0
2020-Jan-21 01:45 262 1 gusting 3 -0.0
2020-Jan-21 01:40 243 2 gusting 9 -0.0
2020-Jan-21 01:35 132 3 gusting 9 -0.0
2020-Jan-21 01:30 105 3 gusting 7 -0.0
2020-Jan-21 01:25 101 4 gusting 9 -0.0
2020-Jan-21 01:20 111 4 gusting 9 -0.0
2020-Jan-21 01:15 126 3 gusting 8 -0.0
2020-Jan-21 01:10 114 3 gusting 11 -0.0
2020-Jan-21 01:05 104 5 gusting 11 -0.0
2020-Jan-21 01:00 123 4 gusting 7 -0.0
2020-Jan-21 00:55 138 4 gusting 9 -0.0
2020-Jan-21 00:50 160 4 gusting 9 -0.0
2020-Jan-21 00:45 227 4 gusting 7 -0.0
2020-Jan-21 00:40 213 4 gusting 7 -0.0
2020-Jan-21 00:35 134 4 gusting 14 -0.0
2020-Jan-21 00:30 124 4 gusting 14 0.6
2020-Jan-21 00:25 149 4 gusting 9 0.6
2020-Jan-21 00:20 151 4 gusting 9 0.6
2020-Jan-21 00:15 131 4 gusting 7 0.6
2020-Jan-21 00:10 107 4 gusting 7 0.6
2020-Jan-21 00:05 098 4 gusting 8 0.6
2020-Jan-21 00:00 137 4 gusting 8 0.6
2020-Jan-20 23:55 154 3 gusting 6 0.6
2020-Jan-20 23:50 140 3 gusting 8 0.6
2020-Jan-20 23:45 116 3 gusting 8 0.6
2020-Jan-20 23:40 116 3 gusting 7 0.6
2020-Jan-20 23:35 112 4 gusting 9 0.6
2020-Jan-20 23:30 104 4 gusting 9 0.6
2020-Jan-20 23:25 119 3 gusting 6 0.6
2020-Jan-20 23:20 123 4 gusting 8 0.6
2020-Jan-20 23:15 114 4 gusting 8 0.6
2020-Jan-20 23:10 121 3 gusting 9 0.6
2020-Jan-20 23:05 107 3 gusting 9 0.6
2020-Jan-20 23:00 113 3 gusting 9 0.6
2020-Jan-20 22:55 113 2 gusting 9 0.6
2020-Jan-20 22:50 085 3 gusting 11 0.6
2020-Jan-20 22:45 089 4 gusting 11 0.6
2020-Jan-20 22:40 116 3 gusting 11 0.6
2020-Jan-20 22:35 132 4 gusting 10 0.6
2020-Jan-20 22:30 110 4 gusting 9 1.1
2020-Jan-20 22:25 109 5 gusting 10 1.1
2020-Jan-20 22:20 130 5 gusting 10 1.1
2020-Jan-20 22:15 150 6 gusting 11 1.1
2020-Jan-20 22:10 146 6 gusting 12 1.1
2020-Jan-20 22:05 125 5 gusting 12 1.1
2020-Jan-20 22:00 110 5 gusting 12 1.1
2020-Jan-20 21:55 115 5 gusting 10 1.1
2020-Jan-20 21:50 125 3 gusting 9 1.1
2020-Jan-20 21:45 135 2 gusting 6 1.1
2020-Jan-20 21:40 142 3 gusting 6 1.1
2020-Jan-20 21:35 124 4 gusting 7 1.1
2020-Jan-20 21:30 120 5 gusting 9 1.1
2020-Jan-20 21:25 133 5 gusting 9 1.1
2020-Jan-20 21:20 125 4 gusting 9 1.1
2020-Jan-20 21:15 124 3 gusting 7 1.1
2020-Jan-20 21:10 129 4 gusting 7 1.1
2020-Jan-20 21:05 124 4 gusting 7 1.1
2020-Jan-20 21:00 144 3 gusting 6 1.1
2020-Jan-20 20:55 149 3 gusting 6 1.1
2020-Jan-20 20:50 144 2 gusting 6 1.1
2020-Jan-20 20:45 135 2 gusting 4 1.7
2020-Jan-20 20:40 112 3 gusting 6 1.7
2020-Jan-20 20:35 089 3 gusting 6 1.7
2020-Jan-20 20:30 109 3 gusting 7 1.7
2020-Jan-20 20:25 112 4 gusting 9 1.7
2020-Jan-20 20:20 090 5 gusting 9 1.7
2020-Jan-20 20:15 078 4 gusting 10 1.7
2020-Jan-20 20:10 103 4 gusting 10 1.1
2020-Jan-20 20:05 120 4 gusting 10 1.1
2020-Jan-20 20:00 131 5 gusting 9 1.1
2020-Jan-20 19:55 142 5 gusting 9 1.1
2020-Jan-20 19:50 137 3 gusting 9 1.1
2020-Jan-20 19:45 139 3 gusting 7 1.1
2020-Jan-20 19:40 132 2 gusting 7 1.1
2020-Jan-20 19:35 107 1 gusting 7 0.6
2020-Jan-20 19:30 083 1 gusting 4 0.6
2020-Jan-20 19:25 123 2 gusting 5 1.1
2020-Jan-20 19:20 155 3 gusting 6 1.1
2020-Jan-20 19:15 137 3 gusting 6 1.1
2020-Jan-20 19:10 120 3 gusting 6 0.6
2020-Jan-20 19:05 102 2 gusting 6 -0.0
2020-Jan-20 19:00 049 1 gusting 3 -0.6
2020-Jan-20 18:55 340 0 gusting 3 -1.7
2020-Jan-20 18:50 314 0 gusting 2 -1.1
2020-Jan-20 18:45 306 0 gusting 1 -1.7
2020-Jan-20 18:40 330 0 gusting 1 -1.1
2020-Jan-20 18:35 117 -1.1
2020-Jan-20 18:30 135 0 gusting 1 -1.1
2020-Jan-20 18:25 033 0 gusting 1 -0.6
2020-Jan-20 18:20 024 0 gusting 2 -0.6
2020-Jan-20 18:15 027 1 gusting 2 -0.6
2020-Jan-20 18:10 026 0 gusting 2 -0.0
2020-Jan-20 18:05 065 0 gusting 3 0.6
2020-Jan-20 18:00 112 0 gusting 3 1.1
2020-Jan-20 17:55 124 2 gusting 6 1.1
2020-Jan-20 17:50 128 2 gusting 6 1.7
2020-Jan-20 17:45 111 2 gusting 6 1.7
2020-Jan-20 17:40 112 2 gusting 6 1.7
2020-Jan-20 17:35 121 2 gusting 6 1.7
2020-Jan-20 17:30 121 1 gusting 4 1.1
2020-Jan-20 17:25 068 1 gusting 3 1.1
2020-Jan-20 17:20 088 2 gusting 4 1.1
2020-Jan-20 17:15 122 2 gusting 6 1.7
2020-Jan-20 17:10 112 1 gusting 6 1.1
2020-Jan-20 17:05 122 1 gusting 3 1.7
2020-Jan-20 17:00 109 1 gusting 3 1.7
2020-Jan-20 16:55 118 2 gusting 5 1.7
2020-Jan-20 16:50 126 1 gusting 5 1.7
2020-Jan-20 16:45 078 1 gusting 5 1.7
2020-Jan-20 16:40 093 2 gusting 5 1.7
2020-Jan-20 16:35 106 2 gusting 5 1.7
2020-Jan-20 16:30 091 1 gusting 5 1.7
2020-Jan-20 16:25 099 2 gusting 5 1.7
2020-Jan-20 16:20 117 2 gusting 6 1.7
2020-Jan-20 16:15 121 2 gusting 6 1.7
2020-Jan-20 16:10 141 2 gusting 6 1.7
2020-Jan-20 16:05 169 2 gusting 6 2.2
2020-Jan-20 16:00 142 2 gusting 6 2.2
2020-Jan-20 15:55 139 4 gusting 6 2.2
2020-Jan-20 15:50 140 3 gusting 6 2.2
2020-Jan-20 15:45 124 2 gusting 6 2.2
2020-Jan-20 15:40 150 2 gusting 6 2.2
2020-Jan-20 15:35 153 3 gusting 6 2.2
2020-Jan-20 15:30 086 3 gusting 6 2.2
2020-Jan-20 15:25 104 4 gusting 9 2.8
2020-Jan-20 15:20 109 4 gusting 9 2.8
2020-Jan-20 15:15 110 3 gusting 7 2.8
2020-Jan-20 15:10 126 3 gusting 8 3.3
2020-Jan-20 15:05 121 3 gusting 8 3.3
2020-Jan-20 15:00 102 3 gusting 8 3.3
2020-Jan-20 14:55 101 3 gusting 8 3.3
2020-Jan-20 14:50 118 3 gusting 6 3.9
2020-Jan-20 14:45 115 3 gusting 9 3.9
2020-Jan-20 14:40 114 4 gusting 9 3.9
2020-Jan-20 14:35 125 3 gusting 9 3.9
2020-Jan-20 14:30 121 2 gusting 6 4.4
2020-Jan-20 14:25 120 3 gusting 7 4.4
2020-Jan-20 14:20 119 3 gusting 7 4.4
2020-Jan-20 14:15 123 3 gusting 7 4.4
2020-Jan-20 14:10 143 3 gusting 7 4.4
2020-Jan-20 14:05 131 3 gusting 6 4.4
2020-Jan-20 14:00 106 3 gusting 6 4.4
2020-Jan-20 13:55 118 4 gusting 8 4.4
2020-Jan-20 13:50 129 5 gusting 8 4.4
2020-Jan-20 13:45 139 5 gusting 8 5.0
2020-Jan-20 13:40 136 4 gusting 8 5.0
2020-Jan-20 13:35 126 4 gusting 8 5.0
2020-Jan-20 13:30 124 4 gusting 8 5.0
2020-Jan-20 13:25 124 4 gusting 9 5.0
2020-Jan-20 13:20 145 4 gusting 9 5.0
2020-Jan-20 13:15 152 5 gusting 8 5.0
2020-Jan-20 13:10 141 4 gusting 8 5.0
2020-Jan-20 13:05 142 4 gusting 9 5.0
2020-Jan-20 13:00 140 5 gusting 9 5.0
2020-Jan-20 12:55 135 4 gusting 8 5.0
2020-Jan-20 12:50 127 2 gusting 6 5.6
2020-Jan-20 12:45 121 2 gusting 7 5.0
2020-Jan-20 12:40 133 2 gusting 7 5.0
2020-Jan-20 12:35 149 2 gusting 6 5.0
2020-Jan-20 12:30 139 3 gusting 7 5.0
2020-Jan-20 12:25 126 4 gusting 7 5.0
2020-Jan-20 12:20 111 4 gusting 8 5.0
2020-Jan-20 12:15 108 3 gusting 8 5.0
2020-Jan-20 12:10 121 3 gusting 6 5.0
2020-Jan-20 12:05 120 3 gusting 6 5.0
2020-Jan-20 12:00 122 3 gusting 6 5.0
2020-Jan-20 11:55 126 3 gusting 6 4.4
2020-Jan-20 11:50 158 2 gusting 6 5.0
2020-Jan-20 11:45 148 3 gusting 6 4.4
2020-Jan-20 11:40 117 4 gusting 6 4.4
2020-Jan-20 11:35 124 4 gusting 6 4.4
2020-Jan-20 11:30 124 4 gusting 6 4.4
2020-Jan-20 11:25 122 4 gusting 8 4.4
2020-Jan-20 11:20 120 4 gusting 8 4.4
2020-Jan-20 11:15 116 3 gusting 6 5.0
2020-Jan-20 11:10 137 3 gusting 6 4.4
2020-Jan-20 11:05 139 3 gusting 6 4.4
2020-Jan-20 11:00 106 2 gusting 6 3.9
2020-Jan-20 10:55 114 3 gusting 6 3.9
2020-Jan-20 10:50 135 4 gusting 6 3.9
2020-Jan-20 10:45 140 4 gusting 6 3.9
2020-Jan-20 10:40 145 4 gusting 9 3.9
2020-Jan-20 10:35 139 4 gusting 9 3.9
2020-Jan-20 10:30 126 3 gusting 8 3.9
2020-Jan-20 10:25 121 3 gusting 7 3.9
2020-Jan-20 10:20 126 4 gusting 7 3.9
2020-Jan-20 10:15 131 3 gusting 6 3.9
2020-Jan-20 10:10 132 3 gusting 9 3.9
2020-Jan-20 10:05 136 3 gusting 9 3.9
2020-Jan-20 10:00 128 3 gusting 6 3.9
2020-Jan-20 09:55 131 3 gusting 6 3.9
2020-Jan-20 09:50 166 3 gusting 6 3.9
2020-Jan-20 09:45 169 3 gusting 6 3.9
2020-Jan-20 09:40 142 3 gusting 7 3.9
2020-Jan-20 09:35 129 3 gusting 7 3.9
2020-Jan-20 09:30 118 2 gusting 6 3.9
2020-Jan-20 09:25 124 3 gusting 6 3.9
2020-Jan-20 09:20 120 3 gusting 6 3.9
2020-Jan-20 09:15 117 3 gusting 6 3.9
2020-Jan-20 09:10 121 4 gusting 8 3.3
2020-Jan-20 09:05 136 4 gusting 8 3.3
2020-Jan-20 09:00 154 3 gusting 6 3.3
2020-Jan-20 08:55 138 3 gusting 7 3.3
2020-Jan-20 08:50 133 3 gusting 7 3.3
2020-Jan-20 08:45 133 2 gusting 3 3.3
2020-Jan-20 08:40 123 2 gusting 6 3.3
2020-Jan-20 08:35 136 3 gusting 6 3.3
2020-Jan-20 08:30 137 3 gusting 6 3.3
2020-Jan-20 08:25 145 3 gusting 6 3.3
2020-Jan-20 08:20 153 3 gusting 6 3.3
2020-Jan-20 08:15 151 3 gusting 6 3.3
2020-Jan-20 08:10 138 3 gusting 6 3.3
2020-Jan-20 08:05 117 3 gusting 6 3.3
2020-Jan-20 08:00 113 3 gusting 7 3.3
2020-Jan-20 07:55 134 4 gusting 9 3.3
2020-Jan-20 07:50 168 6 gusting 9 3.3
2020-Jan-20 07:45 169 5 gusting 8 3.3
2020-Jan-20 07:40 133 3 gusting 8 3.3
2020-Jan-20 07:35 128 3 gusting 6 2.8
2020-Jan-20 07:30 134 2 gusting 6 2.8
2020-Jan-20 07:25 134 3 gusting 8 2.8
2020-Jan-20 07:20 152 4 gusting 8 2.8
2020-Jan-20 07:15 152 4 gusting 6 2.8
2020-Jan-20 07:10 135 3 gusting 6 2.8
2020-Jan-20 07:05 136 3 gusting 7 2.8
2020-Jan-20 07:00 132 4 gusting 7 2.8
2020-Jan-20 06:55 118 3 gusting 7 2.8
2020-Jan-20 06:50 103 3 gusting 7 2.8
2020-Jan-20 06:45 118 2 gusting 7 2.8
2020-Jan-20 06:40 137 2 gusting 6 2.8
2020-Jan-20 06:35 120 2 gusting 6 2.8
2020-Jan-20 06:30 111 2 gusting 4 2.8
2020-Jan-20 06:25 128 2 gusting 4 2.8
2020-Jan-20 06:20 141 1 gusting 4 2.2
2020-Jan-20 06:15 127 1 gusting 5 2.2
2020-Jan-20 06:10 126 2 gusting 6 2.2
2020-Jan-20 06:05 119 2 gusting 6 2.2
2020-Jan-20 06:00 106 1 gusting 4 2.2
2020-Jan-20 05:55 129 2 gusting 7 2.2
2020-Jan-20 05:50 133 2 gusting 7 2.2
2020-Jan-20 05:45 143 1 gusting 6 2.2
2020-Jan-20 05:40 157 1 gusting 6 2.2
2020-Jan-20 05:35 138 1 gusting 4 2.2
2020-Jan-20 05:30 124 1 gusting 4 2.2
2020-Jan-20 05:25 140 2 gusting 6 2.2
2020-Jan-20 05:20 140 3 gusting 6 2.2
2020-Jan-20 05:15 114 2 gusting 6 2.2
2020-Jan-20 05:10 096 2 gusting 5 2.2
2020-Jan-20 05:05 108 2 gusting 6 2.2
2020-Jan-20 05:00 105 2 gusting 6 2.2
2020-Jan-20 04:55 121 3 gusting 6 2.2
2020-Jan-20 04:50 135 4 gusting 6 2.2
2020-Jan-20 04:45 119 3 gusting 4 2.2
2020-Jan-20 04:40 102 2 gusting 6 2.2
2020-Jan-20 04:35 102 2 gusting 6 2.2
2020-Jan-20 04:30 121 2 gusting 6 2.2
2020-Jan-20 04:25 149 3 gusting 6 2.2
2020-Jan-20 04:20 143 3 gusting 6 2.2
2020-Jan-20 04:15 117 2 gusting 6 2.2
2020-Jan-20 04:10 089 1 gusting 4 2.2
2020-Jan-20 04:05 119 1 gusting 4 2.2
2020-Jan-20 04:00 125 2 gusting 6 2.2
2020-Jan-20 03:55 134 2 gusting 6 2.2
2020-Jan-20 03:50 160 3 gusting 9 2.2
2020-Jan-20 03:45 161 3 gusting 9 2.2
2020-Jan-20 03:40 151 3 gusting 7 2.2
2020-Jan-20 03:35 139 4 gusting 9 2.2
2020-Jan-20 03:30 141 3 gusting 9 2.2
2020-Jan-20 03:25 134 2 gusting 6 2.2
2020-Jan-20 03:20 129 3 gusting 6 2.2
2020-Jan-20 03:15 116 3 gusting 9 2.2
2020-Jan-20 03:10 102 4 gusting 9 2.8
2020-Jan-20 03:05 117 3 gusting 6 2.8
2020-Jan-20 03:00 132 4 gusting 7 2.8
2020-Jan-20 02:55 128 3 gusting 7 2.8
2020-Jan-20 02:50 107 3 gusting 7 2.8
2020-Jan-20 02:45 124 3 gusting 6 2.8
2020-Jan-20 02:40 141 4 gusting 6 2.8
2020-Jan-20 02:35 119 4 gusting 13 2.8
2020-Jan-20 02:30 112 3 gusting 13 2.8
2020-Jan-20 02:25 131 3 gusting 8 2.8
2020-Jan-20 02:20 120 4 gusting 8 2.8
2020-Jan-20 02:15 097 4 gusting 7 2.8
2020-Jan-20 02:10 100 4 gusting 6 2.2
2020-Jan-20 02:05 129 5 gusting 9 2.2
2020-Jan-20 02:00 124 6 gusting 9 2.2
2020-Jan-20 01:55 120 5 gusting 10 2.2
2020-Jan-20 01:50 122 4 gusting 10 2.8
2020-Jan-20 01:45 113 4 gusting 10 2.8
2020-Jan-20 01:40 126 5 gusting 10 2.2
2020-Jan-20 01:35 146 5 gusting 9 2.8
2020-Jan-20 01:30 139 4 gusting 12 2.2
2020-Jan-20 01:25 125 4 gusting 12 2.2
2020-Jan-20 01:20 129 4 gusting 6 2.2
2020-Jan-20 01:15 126 3 gusting 6 2.2
2020-Jan-20 01:10 124 2 gusting 6 1.7
2020-Jan-20 01:05 146 1 gusting 3 1.7
2020-Jan-20 01:00 142 0 gusting 3 0.6
2020-Jan-20 00:55 320 0 gusting 3 -0.6
2020-Jan-20 00:50 121 0 gusting 1 -1.1
2020-Jan-20 00:45 131 0 gusting 1 -1.1
2020-Jan-20 00:40 149 0 gusting 1 -1.1
2020-Jan-20 00:35 127 0 gusting 1 -1.1
2020-Jan-20 00:30 318 0 gusting 1 -1.1
2020-Jan-20 00:25 022 0 gusting 1 -1.1
2020-Jan-20 00:20 161 0 gusting 3 -1.1
2020-Jan-20 00:15 237 0 gusting 3 -1.1
2020-Jan-20 00:10 282 0 gusting 1 -1.1
2020-Jan-20 00:05 090 0 gusting 1 -1.1
2020-Jan-20 00:00 270 0 gusting 1 -1.1
2020-Jan-19 23:55 272 0 gusting 1 -1.1
2020-Jan-19 23:50 278 0 gusting 1 -1.1
2020-Jan-19 23:45 025 0 gusting 1 -0.6
2020-Jan-19 23:40 079 0 gusting 1 -0.6
2020-Jan-19 23:35 069 0 gusting 2 -0.6
2020-Jan-19 23:30 085 0 gusting 2 -0.6
2020-Jan-19 23:25 099 0 gusting 1 -0.6
2020-Jan-19 23:20 043 -0.6
2020-Jan-19 23:15 077 -0.6
2020-Jan-19 23:10 138 0 gusting 2 -0.6
2020-Jan-19 23:05 192 0 gusting 2 -0.6
2020-Jan-19 22:59 246 0 gusting 2 -0.0
2020-Jan-19 22:54 303 0 gusting 2 -0.0
2020-Jan-19 22:49 313 0 gusting 2 -0.0
2020-Jan-19 22:44 313 0 gusting 2 -0.0
2020-Jan-19 22:39 270 0 gusting 3 -0.0
2020-Jan-19 22:34 241 1 gusting 3 -0.0
2020-Jan-19 22:29 199 1 gusting 3 -0.0
2020-Jan-19 22:24 015 0 gusting 2 0.6
2020-Jan-19 22:19 329 1 gusting 2 -0.0
2020-Jan-19 22:14 315 1 gusting 3 -0.6
2020-Jan-19 22:09 337 1 gusting 3 -0.6
2020-Jan-19 22:04 059 1 gusting 3 -0.6
2020-Jan-19 21:59 216 0 gusting 2 -1.1
2020-Jan-19 21:54 336 0 gusting 1 -0.6
2020-Jan-19 21:49 111 -0.6
2020-Jan-19 21:44 178 -0.6
2020-Jan-19 21:39 236 0 gusting 1 -0.6
2020-Jan-19 21:34 287 0 gusting 2 -0.6
2020-Jan-19 21:29 319 0 gusting 2 -0.6
2020-Jan-19 21:24 033 -0.6
2020-Jan-19 21:19 037 -1.1
2020-Jan-19 21:14 061 -1.1
2020-Jan-19 21:09 294 0 gusting 1 -1.1
2020-Jan-19 21:04 251 0 gusting 1 -1.1
2020-Jan-19 20:59 115 0 gusting 1 -1.1
2020-Jan-19 20:54 121 0 gusting 1 -1.1
2020-Jan-19 20:49 317 0 gusting 1 -1.1
2020-Jan-19 20:44 159 -1.1
2020-Jan-19 20:39 117 -1.1
2020-Jan-19 20:34 094 -1.1
2020-Jan-19 20:29 237 0 gusting 1 -1.1
2020-Jan-19 20:24 175 0 gusting 3 -0.6
2020-Jan-19 20:19 066 0 gusting 3 -0.6
2020-Jan-19 20:14 039 -0.6
2020-Jan-19 20:09 116 0 gusting 1 -1.1
2020-Jan-19 20:04 113 0 gusting 1 -0.6
2020-Jan-19 19:59 331 0 gusting 1 -0.6
2020-Jan-19 19:54 116 0 gusting 1 -0.6
2020-Jan-19 19:49 128 0 gusting 2 -0.6
2020-Jan-19 19:44 081 0 gusting 2 -0.6
2020-Jan-19 19:39 109 0 gusting 1 -0.6
2020-Jan-19 19:34 114 -0.0
2020-Jan-19 19:29 025 -0.0
2020-Jan-19 19:24 108 -0.0
2020-Jan-19 19:19 135 0 gusting 1 -0.0
2020-Jan-19 19:14 116 0 gusting 1 0.6
2020-Jan-19 19:09 098 0.6
2020-Jan-19 19:04 060 0.6
2020-Jan-19 18:59 077 0 gusting 1 1.1
2020-Jan-19 18:54 090 0 gusting 1 1.1
2020-Jan-19 18:49 062 1.7
2020-Jan-19 18:44 128 1.7
2020-Jan-19 18:39 136 1.7
2020-Jan-19 18:34 137 2.2
2020-Jan-19 18:29 127 0 gusting 1 2.2
2020-Jan-19 18:24 130 0 gusting 2 2.2
2020-Jan-19 18:19 119 0 gusting 2 2.8
2020-Jan-19 18:14 104 1 gusting 2 3.3
2020-Jan-19 18:09 120 1 gusting 3 3.3
2020-Jan-19 18:04 106 1 gusting 3 3.3
2020-Jan-19 17:59 098 1 gusting 3 3.3
2020-Jan-19 17:54 084 2 gusting 4 3.3
2020-Jan-19 17:49 078 2 gusting 4 3.3
2020-Jan-19 17:44 095 2 gusting 4 3.3
2020-Jan-19 17:39 107 1 gusting 4 3.3
2020-Jan-19 17:34 105 1 gusting 3 3.9
2020-Jan-19 17:29 102 1 gusting 3 3.9
2020-Jan-19 17:24 101 2 gusting 5 3.9
2020-Jan-19 17:19 106 1 gusting 5 3.9
2020-Jan-19 17:14 120 1 gusting 6 3.9
2020-Jan-19 17:09 110 2 gusting 6 3.9
2020-Jan-19 17:04 108 3 gusting 9 3.9
2020-Jan-19 16:59 121 3 gusting 9 3.9
2020-Jan-19 16:54 118 3 gusting 6 3.9
2020-Jan-19 16:49 147 3 gusting 6 3.9
2020-Jan-19 16:44 146 3 gusting 6 3.9
2020-Jan-19 16:39 065 3 gusting 8 3.9
2020-Jan-19 16:34 059 3 gusting 8 3.9
2020-Jan-19 16:29 086 3 gusting 8 3.9
2020-Jan-19 16:24 079 3 gusting 6 3.9
2020-Jan-19 16:19 057 2 gusting 6 3.9
2020-Jan-19 16:14 082 2 gusting 5 3.3
2020-Jan-19 16:09 102 2 gusting 5 3.9
2020-Jan-19 16:04 096 3 gusting 6 3.9
2020-Jan-19 15:59 090 3 gusting 6 3.9
2020-Jan-19 15:54 089 3 gusting 6 3.9
2020-Jan-19 15:49 079 3 gusting 6 3.9
2020-Jan-19 15:44 077 4 gusting 6 4.4
2020-Jan-19 15:39 103 4 gusting 6 4.4
2020-Jan-19 15:34 110 2 gusting 6 4.4
2020-Jan-19 15:29 083 2 gusting 6 4.4
2020-Jan-19 15:24 097 2 gusting 6 5.0
2020-Jan-19 15:19 121 3 gusting 6 5.0
2020-Jan-19 15:14 147 2 gusting 6 5.6
2020-Jan-19 15:09 119 3 gusting 6 5.6
2020-Jan-19 15:04 116 3 gusting 6 6.1
2020-Jan-19 14:59 134 3 gusting 6 6.1
2020-Jan-19 14:54 131 3 gusting 6 6.7
2020-Jan-19 14:49 085 2 gusting 6 6.7
2020-Jan-19 14:44 061 2 gusting 6 6.7
2020-Jan-19 14:39 108 2 gusting 6 7.2
2020-Jan-19 14:34 102 2 gusting 4 7.2
2020-Jan-19 14:29 101 3 gusting 6 7.2
2020-Jan-19 14:24 079 2 gusting 6 7.2
2020-Jan-19 14:19 072 2 gusting 5 7.2
2020-Jan-19 14:14 127 2 gusting 5 7.2
2020-Jan-19 14:09 093 3 gusting 6 7.2
2020-Jan-19 14:04 095 3 gusting 6 7.2
2020-Jan-19 13:59 098 3 gusting 9 7.2
2020-Jan-19 13:54 095 4 gusting 9 7.2
2020-Jan-19 13:49 110 3 gusting 9 7.2
2020-Jan-19 13:44 107 3 gusting 9 7.8
2020-Jan-19 13:39 091 4 gusting 7 7.8
2020-Jan-19 13:34 094 4 gusting 6 7.8
2020-Jan-19 13:29 100 4 gusting 8 7.8
2020-Jan-19 13:24 106 4 gusting 8 7.8
2020-Jan-19 13:19 118 4 gusting 7 7.8
2020-Jan-19 13:14 111 3 gusting 7 7.8
2020-Jan-19 13:09 099 3 gusting 5 7.8
2020-Jan-19 13:04 121 3 gusting 9 7.8
2020-Jan-19 12:59 124 4 gusting 9 7.8
2020-Jan-19 12:54 123 4 gusting 6 7.8
2020-Jan-19 12:49 038 3 gusting 6 7.8
2020-Jan-19 12:44 356 3 gusting 5 7.8
2020-Jan-19 12:39 324 3 gusting 6 7.8
2020-Jan-19 12:34 130 3 gusting 6 7.8
2020-Jan-19 12:29 120 3 gusting 6 7.8
2020-Jan-19 12:24 108 2 gusting 5 7.8
2020-Jan-19 12:19 103 2 gusting 6 7.8
2020-Jan-19 12:14 122 3 gusting 6 7.8
2020-Jan-19 12:09 119 3 gusting 6 7.8
2020-Jan-19 12:04 104 2 gusting 6 7.8
2020-Jan-19 11:59 108 3 gusting 6 7.8
2020-Jan-19 11:54 098 3 gusting 6 7.8
2020-Jan-19 11:49 001 3 gusting 6 7.8
2020-Jan-19 11:44 325 2 gusting 5 7.8
2020-Jan-19 11:39 132 2 gusting 5 7.8
2020-Jan-19 11:34 125 2 gusting 5 7.2
2020-Jan-19 11:29 105 2 gusting 4 7.2
2020-Jan-19 11:24 103 2 gusting 4 7.8
2020-Jan-19 11:19 107 2 gusting 6 7.8
2020-Jan-19 11:14 108 2 gusting 6 7.2
2020-Jan-19 11:09 093 2 gusting 3 7.2
2020-Jan-19 11:04 093 1 gusting 3 6.7
2020-Jan-19 10:59 126 2 gusting 6 6.7
2020-Jan-19 10:54 121 2 gusting 6 6.7
2020-Jan-19 10:49 123 3 gusting 6 7.2
2020-Jan-19 10:44 141 4 gusting 6 6.7
2020-Jan-19 10:39 082 2 gusting 6 6.7
2020-Jan-19 10:34 116 2 gusting 6 6.7
2020-Jan-19 10:29 148 2 gusting 5 6.7
2020-Jan-19 10:24 130 2 gusting 5 6.1
2020-Jan-19 10:19 120 2 gusting 6 6.1
2020-Jan-19 10:14 070 2 gusting 6 5.6
2020-Jan-19 10:09 069 2 gusting 4 5.6
2020-Jan-19 10:04 112 2 gusting 3 5.6
2020-Jan-19 09:59 097 2 gusting 6 5.0
2020-Jan-19 09:54 088 3 gusting 6 5.0
2020-Jan-19 09:49 096 3 gusting 6 5.0
2020-Jan-19 09:44 099 3 gusting 6 4.4
2020-Jan-19 09:39 120 3 gusting 6 4.4
2020-Jan-19 09:34 114 3 gusting 6 4.4
2020-Jan-19 09:29 120 3 gusting 6 3.9
2020-Jan-19 09:24 128 2 gusting 6 3.9
2020-Jan-19 09:19 091 2 gusting 5 3.9
2020-Jan-19 09:14 082 2 gusting 5 3.9
2020-Jan-19 09:09 113 2 gusting 6 3.9
2020-Jan-19 09:04 105 3 gusting 6 3.9
2020-Jan-19 08:59 104 3 gusting 7 3.9
2020-Jan-19 08:54 094 3 gusting 7 3.9
2020-Jan-19 08:49 078 3 gusting 7 3.3
2020-Jan-19 08:44 090 3 gusting 7 3.3
2020-Jan-19 08:39 119 3 gusting 7 3.3
2020-Jan-19 08:34 116 3 gusting 6 2.8
2020-Jan-19 08:29 127 3 gusting 6 2.8
2020-Jan-19 08:24 097 4 gusting 6 2.8
2020-Jan-19 08:19 078 3 gusting 6 2.8
2020-Jan-19 08:14 107 3 gusting 6 2.8
2020-Jan-19 08:09 098 3 gusting 7 2.8
2020-Jan-19 08:04 075 3 gusting 7 2.8
2020-Jan-19 07:59 085 3 gusting 9 2.8
2020-Jan-19 07:54 101 3 gusting 9 2.2
2020-Jan-19 07:49 099 3 gusting 6 2.2
2020-Jan-19 07:44 086 3 gusting 6 2.2
2020-Jan-19 07:39 090 2 gusting 6 2.2
2020-Jan-19 07:34 108 1 gusting 4 1.7
2020-Jan-19 07:29 107 1 gusting 4 1.1
2020-Jan-19 07:24 101 1 gusting 4 1.1
2020-Jan-19 07:19 104 1 gusting 3 0.6
2020-Jan-19 07:14 122 0 gusting 2 -0.0
2020-Jan-19 07:09 129 1 gusting 4 -0.0
2020-Jan-19 07:04 140 0 gusting 4 -0.0
2020-Jan-19 06:59 134 0 gusting 2 -0.6
2020-Jan-19 06:54 109 0 gusting 5 -1.1
2020-Jan-19 06:49 137 0 gusting 5 -1.1
2020-Jan-19 06:44 165 0 gusting 2 -1.7
2020-Jan-19 06:39 132 0 gusting 2 -1.7
2020-Jan-19 06:34 129 0 gusting 2 -1.7
2020-Jan-19 06:29 142 0 gusting 2 -1.7
2020-Jan-19 06:24 189 0 gusting 1 -1.7
2020-Jan-19 06:19 335 -2.2
2020-Jan-19 06:14 238 -2.2
2020-Jan-19 06:09 202 0 gusting 1 -2.2
2020-Jan-19 06:04 126 -2.2